User: anonymous
Location: NJAA Observatory
(40.6819°N, 74.8979°W)
Time: 11:43:01
(UTC-04:00)
Language:

Meteor 1-28 Rocket - Orbit

View from above orbital plane
View from above orbital plane
View from above satellite
View from above satellite

Ground track
Ground track

The orbit data is extracted from the following two-line orbital elements,

1 10114U 77057B   14233.85121489  .00001181  00000-0  69261-4 0  3223
2 10114 097.2618 091.1040 0013613 317.1389 042.8781 15.13544791 27495
Epoch (UTC): 21 August 2014 20:25:44
Eccentricity: 0.0013613
inclination: 97.2618°
perigee height: 516 km
apogee height: 535 km
right ascension of ascending node: 91.1040°
argument of perigee: 317.1389°
revolutions per day: 15.13544791
mean anomaly at epoch: 42.8781°
orbit number at epoch: 2749

The dashed part of the orbit path shows where the satellite is in the earth's shadow,  

DLR